Time,TemperatureF,DewpointF,PressureIn,WindDirection,WindDirectionDegrees,WindSpeedMPH,WindSpeedGustMPH,Humidity,HourlyPrecipIn,Conditions,Clouds,dailyrainin,SolarRadiationWatts/m^2,SoftwareType,DateUTC
2013-09-23 00:08:00,72.6,52.0,30.04,NNW,327,0.0,-999.0,48,-99.99,,,0.00,0,weatherlink.com 1.10,2013-09-23 07:08:00,
2013-09-23 00:23:00,72.1,52.0,30.04,NNW,327,0.0,-999.0,49,-99.99,,,0.00,0,weatherlink.com 1.10,2013-09-23 07:23:00,
2013-09-23 00:38:00,71.7,51.0,30.04,NNW,327,1.0,-999.0,49,-99.99,,,0.00,0,weatherlink.com 1.10,2013-09-23 07:38:00,
2013-09-23 00:53:00,71.3,52.0,30.04,NNW,327,0.0,-999.0,51,-99.99,,,0.00,0,weatherlink.com 1.10,2013-09-23 07:53:00,
2013-09-23 01:08:00,70.3,52.0,30.04,NNW,327,0.0,-999.0,53,-99.99,,,0.00,0,weatherlink.com 1.10,2013-09-23 08:08:00,
2013-09-23 01:23:00,69.8,52.0,30.04,NNW,327,0.0,-999.0,53,-99.99,,,0.00,0,weatherlink.com 1.10,2013-09-23 08:23:00,
2013-09-23 01:38:00,69.4,52.0,30.05,NNW,327,0.0,-999.0,54,-99.99,,,0.00,0,weatherlink.com 1.10,2013-09-23 08:38:00,
2013-09-23 01:53:00,69.2,52.0,30.05,NNW,327,0.0,-999.0,54,-99.99,,,0.00,0,weatherlink.com 1.10,2013-09-23 08:53:00,
2013-09-23 02:08:00,69.3,52.0,30.05,NNW,327,0.0,-999.0,54,-99.99,,,0.00,0,weatherlink.com 1.10,2013-09-23 09:08:00,
2013-09-23 02:23:00,68.7,52.0,30.05,NNW,327,0.0,-999.0,55,-99.99,,,0.00,0,weatherlink.com 1.10,2013-09-23 09:23:00,
2013-09-23 02:39:00,68.1,51.0,30.05,NNW,327,0.0,-999.0,54,-99.99,,,0.00,0,weatherlink.com 1.10,2013-09-23 09:39:00,
2013-09-23 02:54:00,67.5,51.0,30.05,NNW,327,0.0,-999.0,56,-99.99,,,0.00,0,weatherlink.com 1.10,2013-09-23 09:54:00,
2013-09-23 03:09:00,67.1,51.0,30.05,NNW,327,0.0,-999.0,57,-99.99,,,0.00,0,weatherlink.com 1.10,2013-09-23 10:09:00,
2013-09-23 03:24:00,67.0,51.0,30.05,NNW,327,0.0,-999.0,56,-99.99,,,0.00,0,weatherlink.com 1.10,2013-09-23 10:24:00,
2013-09-23 03:39:00,67.4,51.0,30.05,NNW,327,0.0,-999.0,55,-99.99,,,0.00,0,weatherlink.com 1.10,2013-09-23 10:39:00,
2013-09-23 03:54:00,67.4,51.0,30.06,NNW,327,0.0,-999.0,55,-99.99,,,0.00,0,weatherlink.com 1.10,2013-09-23 10:54:00,
2013-09-23 04:09:00,66.9,50.0,30.06,NNW,327,0.0,-999.0,55,-99.99,,,0.00,0,weatherlink.com 1.10,2013-09-23 11:09:00,
2013-09-23 04:24:00,66.6,50.0,30.06,NW,326,0.0,-999.0,55,-99.99,,,0.00,0,weatherlink.com 1.10,2013-09-23 11:24:00,
2013-09-23 04:39:00,66.5,50.0,30.06,NW,326,0.0,-999.0,55,-99.99,,,0.00,0,weatherlink.com 1.10,2013-09-23 11:39:00,
2013-09-23 04:54:00,65.9,50.0,30.07,NNW,327,0.0,-999.0,57,-99.99,,,0.00,0,weatherlink.com 1.10,2013-09-23 11:54:00,
2013-09-23 05:09:00,65.4,51.0,30.07,NNW,327,0.0,-999.0,59,-99.99,,,0.00,0,weatherlink.com 1.10,2013-09-23 12:09:00,
2013-09-23 05:24:00,64.8,51.0,30.07,NNW,327,0.0,-999.0,61,-99.99,,,0.00,0,weatherlink.com 1.10,2013-09-23 12:24:00,
2013-09-23 05:39:00,64.3,50.0,30.07,NNW,327,2.0,-999.0,60,-99.99,,,0.00,0,weatherlink.com 1.10,2013-09-23 12:39:00,
2013-09-23 05:54:00,64.1,50.0,30.07,NNW,327,2.0,-999.0,60,-99.99,,,0.00,0,weatherlink.com 1.10,2013-09-23 12:54:00,
2013-09-23 06:09:00,64.0,49.0,30.08,NW,326,2.0,-999.0,59,-99.99,,,0.00,0,weatherlink.com 1.10,2013-09-23 13:09:00,
2013-09-23 06:24:00,64.5,49.0,30.08,NW,326,0.0,-999.0,57,-99.99,,,0.00,0,weatherlink.com 1.10,2013-09-23 13:24:00,
2013-09-23 06:39:00,64.7,46.0,30.09,NW,326,1.0,-999.0,52,-99.99,,,0.00,7,weatherlink.com 1.10,2013-09-23 13:39:00,
2013-09-23 06:54:00,65.1,48.0,30.09,NNW,327,2.0,-999.0,54,-99.99,,,0.00,21,weatherlink.com 1.10,2013-09-23 13:54:00,
2013-09-23 07:09:00,65.6,48.0,30.09,NNW,327,0.0,-999.0,53,-99.99,,,0.00,54,weatherlink.com 1.10,2013-09-23 14:09:00,
2013-09-23 07:24:00,66.6,48.0,30.10,NNW,327,0.0,-999.0,52,-99.99,,,0.00,67,weatherlink.com 1.10,2013-09-23 14:24:00,
2013-09-23 07:39:00,67.3,47.0,30.10,NNW,327,0.0,-999.0,49,-99.99,,,0.00,158,weatherlink.com 1.10,2013-09-23 14:39:00,
2013-09-23 07:54:00,69.2,46.0,30.11,NNW,327,0.0,-999.0,44,-99.99,,,0.00,218,weatherlink.com 1.10,2013-09-23 14:54:00,
2013-09-23 08:09:00,71.5,47.0,30.11,NNW,327,0.0,-999.0,42,-99.99,,,0.00,269,weatherlink.com 1.10,2013-09-23 15:09:00,
2013-09-23 08:24:00,73.8,47.0,30.11,NNW,327,0.0,-999.0,39,-99.99,,,0.00,316,weatherlink.com 1.10,2013-09-23 15:24:00,
2013-09-23 08:39:00,75.3,51.0,30.11,NNW,327,0.0,-999.0,42,-99.99,,,0.00,366,weatherlink.com 1.10,2013-09-23 15:39:00,
2013-09-23 08:55:00,76.2,48.0,30.12,NNW,327,4.0,-999.0,37,-99.99,,,0.00,413,weatherlink.com 1.10,2013-09-23 15:55:00,
2013-09-23 09:10:00,78.6,46.0,30.12,NNW,327,2.0,-999.0,32,-99.99,,,0.00,457,weatherlink.com 1.10,2013-09-23 16:10:00,
2013-09-23 09:25:00,80.5,46.0,30.12,NNW,327,0.0,-999.0,30,-99.99,,,0.00,501,weatherlink.com 1.10,2013-09-23 16:25:00,
2013-09-23 09:40:00,82.5,44.0,30.13,NNW,327,0.0,-999.0,26,-99.99,,,0.00,547,weatherlink.com 1.10,2013-09-23 16:40:00,
2013-09-23 09:55:00,84.4,47.0,30.12,NNW,327,0.0,-999.0,27,-99.99,,,0.00,580,weatherlink.com 1.10,2013-09-23 16:55:00,
2013-09-23 10:10:00,85.6,48.0,30.12,NNW,327,0.0,-999.0,27,-99.99,,,0.00,621,weatherlink.com 1.10,2013-09-23 17:10:00,
2013-09-23 10:25:00,87.1,46.0,30.12,NNW,327,0.0,-999.0,24,-99.99,,,0.00,652,weatherlink.com 1.10,2013-09-23 17:25:00,
2013-09-23 10:40:00,88.5,47.0,30.12,NNW,327,0.0,-999.0,24,-99.99,,,0.00,679,weatherlink.com 1.10,2013-09-23 17:40:00,
2013-09-23 10:55:00,90.1,46.0,30.12,NNW,327,0.0,-999.0,22,-99.99,,,0.00,705,weatherlink.com 1.10,2013-09-23 17:55:00,
2013-09-23 11:10:00,92.0,44.0,30.12,NNW,327,0.0,-999.0,19,-99.99,,,0.00,731,weatherlink.com 1.10,2013-09-23 18:10:00,
2013-09-23 11:25:00,92.7,43.0,30.12,NNW,327,0.0,-999.0,18,-99.99,,,0.00,749,weatherlink.com 1.10,2013-09-23 18:25:00,
2013-09-23 11:40:00,93.3,41.0,30.11,NNW,327,0.0,-999.0,16,-99.99,,,0.00,765,weatherlink.com 1.10,2013-09-23 18:40:00,
2013-09-23 11:55:00,94.0,43.0,30.11,NNW,327,0.0,-999.0,17,-99.99,,,0.00,773,weatherlink.com 1.10,2013-09-23 18:55:00,
2013-09-23 12:10:00,94.7,44.0,30.11,NNW,327,0.0,-999.0,17,-99.99,,,0.00,782,weatherlink.com 1.10,2013-09-23 19:10:00,
2013-09-23 12:25:00,94.8,42.0,30.10,WNW,285,0.0,-999.0,16,-99.99,,,0.00,788,weatherlink.com 1.10,2013-09-23 19:25:00,
2013-09-23 12:41:00,95.1,42.0,30.10,WSW,245,0.0,-999.0,16,-99.99,,,0.00,786,weatherlink.com 1.10,2013-09-23 19:41:00,
2013-09-23 12:56:00,95.8,44.0,30.09,WSW,245,1.0,-999.0,17,-99.99,,,0.00,782,weatherlink.com 1.10,2013-09-23 19:56:00,
2013-09-23 13:11:00,96.0,43.0,30.09,SSW,200,1.0,-999.0,16,-99.99,,,0.00,773,weatherlink.com 1.10,2013-09-23 20:11:00,
2013-09-23 13:26:00,95.7,44.0,30.08,South,186,1.0,-999.0,17,-99.99,,,0.00,761,weatherlink.com 1.10,2013-09-23 20:26:00,
2013-09-23 13:41:00,95.9,47.0,30.08,South,169,0.0,-999.0,19,-99.99,,,0.00,745,weatherlink.com 1.10,2013-09-23 20:41:00,
2013-09-23 13:56:00,96.3,45.0,30.07,SSE,165,4.0,-999.0,17,-99.99,,,0.00,726,weatherlink.com 1.10,2013-09-23 20:56:00,
2013-09-23 14:11:00,96.4,43.0,30.07,SE,144,0.0,-999.0,16,-99.99,,,0.00,703,weatherlink.com 1.10,2013-09-23 21:11:00,
2013-09-23 14:26:00,97.3,46.0,30.07,SE,144,0.0,-999.0,17,-99.99,,,0.00,677,weatherlink.com 1.10,2013-09-23 21:26:00,
2013-09-23 14:41:00,96.8,44.0,30.07,SSE,158,2.0,-999.0,16,-99.99,,,0.00,647,weatherlink.com 1.10,2013-09-23 21:41:00,
2013-09-23 14:56:00,97.8,43.0,30.06,SSE,161,0.0,-999.0,15,-99.99,,,0.00,615,weatherlink.com 1.10,2013-09-23 21:56:00,
2013-09-23 15:11:00,97.1,44.0,30.06,SSE,167,0.0,-999.0,16,-99.99,,,0.00,580,weatherlink.com 1.10,2013-09-23 22:11:00,
2013-09-23 15:26:00,97.5,43.0,30.05,SSE,165,2.0,-999.0,15,-99.99,,,0.00,541,weatherlink.com 1.10,2013-09-23 22:26:00,
2013-09-23 15:41:00,97.7,44.0,30.05,SSE,168,0.0,-999.0,16,-99.99,,,0.00,503,weatherlink.com 1.10,2013-09-23 22:41:00,
2013-09-23 15:56:00,98.2,43.0,30.05,SSE,163,1.0,-999.0,15,-99.99,,,0.00,461,weatherlink.com 1.10,2013-09-23 22:56:00,
2013-09-23 16:11:00,98.0,41.0,30.04,SSE,164,0.0,-999.0,14,-99.99,,,0.00,417,weatherlink.com 1.10,2013-09-23 23:11:00,
2013-09-23 16:26:00,98.0,45.0,30.04,SSE,161,0.0,-999.0,16,-99.99,,,0.00,367,weatherlink.com 1.10,2013-09-23 23:26:00,
2013-09-23 16:41:00,97.6,43.0,30.04,SSE,161,0.0,-999.0,15,-99.99,,,0.00,320,weatherlink.com 1.10,2013-09-23 23:41:00,
2013-09-23 16:56:00,97.3,44.0,30.03,SE,146,0.0,-999.0,16,-99.99,,,0.00,274,weatherlink.com 1.10,2013-09-23 23:56:00,
2013-09-23 17:11:00,97.4,43.0,30.04,SE,145,0.0,-999.0,15,-99.99,,,0.00,225,weatherlink.com 1.10,2013-09-24 00:11:00,
2013-09-23 17:26:00,96.9,44.0,30.04,SE,145,0.0,-999.0,16,-99.99,,,0.00,178,weatherlink.com 1.10,2013-09-24 00:26:00,
2013-09-23 17:41:00,96.0,43.0,30.04,SE,146,2.0,-999.0,16,-99.99,,,0.00,121,weatherlink.com 1.10,2013-09-24 00:41:00,
2013-09-23 17:56:00,95.3,44.0,30.04,SE,146,0.0,-999.0,17,-99.99,,,0.00,72,weatherlink.com 1.10,2013-09-24 00:56:00,
2013-09-23 18:11:00,94.3,45.0,30.04,SE,146,0.0,-999.0,18,-99.99,,,0.00,21,weatherlink.com 1.10,2013-09-24 01:11:00,
2013-09-23 18:26:00,92.9,46.0,30.04,SE,146,0.0,-999.0,20,-99.99,,,0.00,11,weatherlink.com 1.10,2013-09-24 01:26:00,
2013-09-23 18:41:00,91.4,46.0,30.04,SE,146,0.0,-999.0,21,-99.99,,,0.00,5,weatherlink.com 1.10,2013-09-24 01:41:00,
2013-09-23 18:56:00,90.0,45.0,30.04,SE,145,0.0,-999.0,21,-99.99,,,0.00,0,weatherlink.com 1.10,2013-09-24 01:56:00,
2013-09-23 19:11:00,89.2,46.0,30.05,SE,145,0.0,-999.0,22,-99.99,,,0.00,0,weatherlink.com 1.10,2013-09-24 02:11:00,
2013-09-23 19:26:00,88.1,45.0,30.05,SE,146,0.0,-999.0,22,-99.99,,,0.00,0,weatherlink.com 1.10,2013-09-24 02:26:00,
2013-09-23 19:41:00,87.2,45.0,30.06,SE,146,0.0,-999.0,23,-99.99,,,0.00,0,weatherlink.com 1.10,2013-09-24 02:41:00,
2013-09-23 19:56:00,86.4,46.0,30.06,SE,146,0.0,-999.0,24,-99.99,,,0.00,0,weatherlink.com 1.10,2013-09-24 02:56:00,
2013-09-23 20:11:00,85.6,47.0,30.07,SE,146,0.0,-999.0,26,-99.99,,,0.00,0,weatherlink.com 1.10,2013-09-24 03:11:00,
2013-09-23 20:26:00,85.0,47.0,30.08,SE,146,0.0,-999.0,27,-99.99,,,0.00,0,weatherlink.com 1.10,2013-09-24 03:26:00,
2013-09-23 20:41:00,84.4,49.0,30.08,SE,145,0.0,-999.0,29,-99.99,,,0.00,0,weatherlink.com 1.10,2013-09-24 03:41:00,
2013-09-23 20:56:00,82.2,49.0,30.09,SE,145,0.0,-999.0,31,-99.99,,,0.00,0,weatherlink.com 1.10,2013-09-24 03:56:00,
2013-09-23 21:11:00,80.5,49.0,30.09,SE,146,0.0,-999.0,33,-99.99,,,0.00,0,weatherlink.com 1.10,2013-09-24 04:11:00,
2013-09-23 21:26:00,79.6,50.0,30.09,SE,146,0.0,-999.0,35,-99.99,,,0.00,0,weatherlink.com 1.10,2013-09-24 04:26:00,
2013-09-23 21:41:00,79.1,49.0,30.10,SE,146,0.0,-999.0,35,-99.99,,,0.00,0,weatherlink.com 1.10,2013-09-24 04:41:00,
2013-09-23 21:56:00,78.6,50.0,30.10,SE,145,0.0,-999.0,37,-99.99,,,0.00,0,weatherlink.com 1.10,2013-09-24 04:56:00,
2013-09-23 22:11:00,77.9,50.0,30.10,SE,146,0.0,-999.0,37,-99.99,,,0.00,0,weatherlink.com 1.10,2013-09-24 05:11:00,
2013-09-23 22:26:00,77.3,50.0,30.10,SE,145,0.0,-999.0,39,-99.99,,,0.00,0,weatherlink.com 1.10,2013-09-24 05:26:00,
2013-09-23 22:41:00,76.3,49.0,30.10,SE,145,0.0,-999.0,38,-99.99,,,0.00,0,weatherlink.com 1.10,2013-09-24 05:41:00,
2013-09-23 22:56:00,76.5,48.0,30.10,SE,146,0.0,-999.0,36,-99.99,,,0.00,0,weatherlink.com 1.10,2013-09-24 05:56:00,
2013-09-23 23:11:00,76.2,48.0,30.10,SE,146,0.0,-999.0,37,-99.99,,,0.00,0,weatherlink.com 1.10,2013-09-24 06:11:00,
2013-09-23 23:26:00,76.2,47.0,30.10,SE,146,0.0,-999.0,36,-99.99,,,0.00,0,weatherlink.com 1.10,2013-09-24 06:26:00,
2013-09-23 23:41:00,76.5,48.0,30.10,SE,146,0.0,-999.0,36,-99.99,,,0.00,0,weatherlink.com 1.10,2013-09-24 06:41:00,
2013-09-23 23:56:00,76.7,47.0,30.10,SE,146,0.0,-999.0,35,-99.99,,,0.00,0,weatherlink.com 1.10,2013-09-24 06:56:00,